Orbital Elements at Epoch 2459200.5 (2020-Dec-17.0) TDB
Reference: JPL 30 (heliocentric ecliptic J2000)
Element | Value | Uncertainty (1-sigma) | Units |
e | .04678426905760978 | 3.084e-08 | |
a | 2.196506645074524 | 5.9924e-09 | au |
q | 2.09374468720453 | 6.8534e-08 | au |
i | 3.776356630929397 | 3.8982e-06 | deg |
node | 186.0824406321903 | 4.3735e-05 | deg |
peri | 207.8417216219815 | 5.872e-05 | deg |
M | 299.1827046208001 | 3.9354e-05 | deg |
tp | 2459401.373113415430 (2021-Jul-05.87311342) | 0.00013015 | TDB |
period | 1189.042037773467 3.26 | 4.8659e-06 1.332e-08 | d yr |
n | .3027647371274743 | 1.239e-09 | deg/d |
Q | 2.299268602944518 | 6.2728e-09 | au |
|
| | Orbit Determination Parameters
Additional Information
|